Date,TemperatureHighF,TemperatureAvgF,TemperatureLowF,DewpointHighF,DewpointAvgF,DewpointLowF,HumidityHigh,HumidityAvg,HumidityLow,PressureMaxIn,PressureMinIn,WindSpeedMaxMPH,WindSpeedAvgMPH,GustSpeedMaxMPH,PrecipitationSumIn
2013-2-1,28,22,14,20,12,5,82,66,50,30.55,30.32,8,2,16,0.00
2013-2-2,41,33,23,35,26,17,95,77,53,30.37,30.14,8,2,16,0.00
2013-2-3,45,36,25,33,28,23,97,74,49,30.22,30.05,13,4,20,0.00
2013-2-4,52,40,25,43,33,23,96,79,43,30.16,29.93,8,2,22,0.05
2013-2-5,58,46,32,43,40,31,96,81,48,30.10,29.94,8,1,13,0.01
2013-2-6,56,41,28,38,32,27,100,75,37,30.27,30.10,5,1,10,0.00
2013-2-7,67,48,37,51,40,35,94,75,51,30.12,29.92,9,1,13,0.00
2013-2-8,44,40,35,38,33,29,85,77,64,30.37,30.09,10,4,19,0.48
2013-2-9,53,41,33,37,31,28,85,69,41,30.41,30.11,7,2,11,0.00
2013-2-10,59,54,47,56,47,33,98,80,52,30.11,29.75,18,8,33,0.37
2013-2-11,58,47,31,55,35,29,96,65,42,30.19,29.90,10,3,17,0.01
2013-2-12,50,40,26,38,32,26,100,75,47,30.19,29.88,5,0,7,0.00
2013-2-13,45,40,35,39,36,33,97,88,69,30.00,29.81,8,2,14,0.17
2013-2-14,60,45,36,41,37,34,96,76,43,30.03,29.96,7,2,18,0.00
2013-2-15,49,39,26,38,30,19,99,71,47,30.24,30.03,11,3,18,0.00
2013-2-16,38,29,20,23,17,7,93,66,29,30.24,30.19,12,3,20,0.00
2013-2-17,47,32,18,26,21,16,93,67,37,30.29,30.11,8,2,13,0.00
2013-2-18,61,49,41,48,36,24,98,64,38,30.11,29.77,21,7,33,0.67
2013-2-19,50,38,25,48,27,18,93,66,37,30.29,29.84,16,6,22,0.67
2013-2-20,35,29,23,20,16,13,76,60,46,30.40,30.27,5,1,11,0.00
2013-2-21,39,33,26,39,26,18,100,76,49,30.29,29.85,11,3,20,1.01
2013-2-22,48,41,33,44,38,32,100,89,74,30.08,29.85,9,3,18,1.03
2013-2-23,47,36,27,33,28,26,99,76,48,30.08,29.97,6,1,11,0.00
2013-2-24,54,37,23,31,26,22,97,70,35,30.18,30.02,6,1,11,0.00
2013-2-25,59,49,29,47,32,27,93,55,32,30.05,29.46,12,4,21,0.05
2013-2-26,51,46,39,50,43,35,100,90,72,29.72,29.38,11,4,21,0.60
2013-2-27,39,38,36,36,33,31,88,79,72,29.93,29.72,10,5,19,0.03
2013-2-28,38,36,34,33,30,26,94,79,70,30.10,29.91,9,4,13,0.02